#timestamp,LO_Frequency,Hit,StdDev 
1667610015.9,286046998.5,N
1667610035.7,286047000.9,N
1667610055.5,286046999.7,N
1667610075.4,286047004.3,N
1667610095.2,286047003.6,N
1667610115.0,286047003.2,N
1667610116.0,286047003.2,N
1667610135.8,286047003.5,N
1667610155.6,286047003.4,N
1667610175.5,286047003.9,N
1667610195.3,286047003.8,N
1667610215.1,286047004.2,N
1667610235.9,286047002.9,N
1667610255.7,286047005.6,N
1667610275.6,286047005.9,N
1667610295.4,286047003.7,N
1667610315.2,286047001.4,N
1667610335.1,286047001.6,N
1667610336.0,286047001.6,N
1667610355.8,286047003.5,N
1667610375.6,286047003.4,N
1667610395.5,286047005.5,N
1667610415.3,286047004.2,N
1667610435.2,286047003.9,N
1667610455.0,286047003.8,N
1667610455.9,286047003.8,N
1667610475.8,286047001.8,N
1667610495.6,286047001.8,N
1667610515.4,286047001.9,N
1667610535.3,286047004.0,N
1667610555.1,286047004.2,N
1667610575.9,286047004.4,Y
1667610595.7,286047000.9,P
1667610615.5,286046998.2,N
1667610635.4,286046996.5,N
1667610655.2,286046999.3,N
1667610675.0,286046998.6,N
1667610675.9,286046998.6,N
1667610695.8,286046999.7,N
1667610715.6,286047000.0,N
1667610735.5,286046999.8,N
1667610755.3,286046999.8,N
1667610775.1,286047001.9,N
1667610795.9,286047002.0,N
1667610815.7,286047002.1,N
1667610835.5,286047001.3,N
1667610855.4,286047002.2,N
1667610875.2,286047002.3,N
1667610895.1,286047000.0,N
1667610896.0,286047000.0,N
1667610915.8,286047000.3,N
1667610935.6,286047000.1,N
1667610955.5,286046998.5,N
1667610975.3,286046996.8,N
1667610995.2,286046999.4,N
1667611015.9,286046997.8,N
1667611035.7,286046996.7,N
1667611055.6,286046998.7,N
1667611075.4,286046998.5,N
1667611095.2,286047000.2,N
1667611115.1,286046999.7,N
1667611116.0,286046999.7,N
1667611135.8,286047000.8,N
1667611155.7,286047000.9,N
1667611175.5,286047000.9,N
1667611195.3,286046999.9,N
1667611215.2,286047001.0,N
1667611235.0,286046998.1,N
1667611235.9,286046998.1,N
1667611255.8,286046997.0,N
1667611275.6,286046995.3,N
1667611295.4,286046995.5,N
1667611315.3,286046997.7,N
1667611335.1,286046999.3,N
1667611355.8,286047000.6,N
1667611375.7,286047000.0,N
1667611395.5,286047001.9,N
1667611415.4,286047002.8,N
1667611435.2,286047002.0,N
1667611455.0,286047002.3,N
1667611455.9,286047002.3,N
1667611475.8,286047000.6,N
1667611495.6,286046999.6,N
1667611515.4,286046996.5,N
1667611535.3,286046997.1,N
1667611555.1,286046995.0,N
1667611575.9,286046994.9,N
1667611595.7,286046997.0,N
1667611615.5,286046998.6,N
1667611635.4,286047000.5,N
1667611655.2,286047000.9,N
1667611675.1,286047001.1,N
1667611676.0,286047001.1,N
1667611695.9,286047000.6,N
1667611715.7,286047002.1,N
1667611735.5,286047001.1,N
1667611755.4,286047000.6,N
1667611775.2,286046998.8,N
1667611795.1,286046998.4,N
1667611796.0,286046998.4,N
1667611815.8,286046998.7,N
1667611835.6,286046998.7,N
1667611855.5,286047000.8,N
1667611875.3,286047000.7,N
1667611895.1,286047000.6,N
1667611915.9,286046999.9,N
1667611935.7,286047000.5,N
1667611955.6,286046998.5,N
1667611975.4,286047000.5,N
1667611995.2,286047001.0,N
1667612015.1,286047001.9,N
1667612016.0,286047001.9,N
1667612035.8,286047001.9,N
1667612055.6,286047001.0,N
1667612075.5,286046999.2,N
1667612095.3,286046998.3,N
1667612115.2,286046999.3,N
1667612135.9,286047000.7,N
1667612155.7,286047000.9,N
1667612175.6,286046998.3,N
1667612195.4,286047001.0,N
1667612215.3,286047002.5,N
1667612235.6,286047002.5,N
1667612255.5,286047001.4,N
1667612275.3,286047001.4,N
1667612295.2,286047000.3,N
1667612315.9,286047000.3,N
1667612335.7,286047000.8,N
1667612355.6,286046999.7,N
1667612375.4,286047001.8,N
1667612395.2,286047002.1,N
1667612415.1,286047001.7,N
1667612416.0,286047001.7,N
1667612435.8,286047003.8,Y
1667612455.7,286047002.0,P
1667612475.5,286047001.7,N
1667612495.3,286047002.1,P
1667612515.2,286047002.5,Y
1667612535.0,286047001.0,P
1667612535.9,286047001.0,P
1667612555.8,286047001.2,P
1667612575.6,286047001.0,Y
1667612595.4,286046999.3,P
1667612615.3,286046998.8,N
1667612635.1,286046996.7,P
1667612655.8,286046997.8,N
1667612675.7,286046998.0,N
1667612695.5,286046997.5,N
1667612715.4,286046997.1,N
1667612735.2,286047001.0,N
1667612755.0,286046999.7,N
1667612755.9,286046999.7,N
1667612775.8,286047002.5,N
1667612795.6,286047001.4,N
1667612815.4,286047004.0,N
1667612835.3,286047002.0,N
1667612855.1,286047001.4,N
1667612875.9,286047001.9,N
1667612895.7,286047001.9,N
1667612915.5,286047002.2,N
1667612935.4,286047001.6,N
1667612955.2,286047002.1,N
1667612975.0,286047001.6,N
1667612975.9,286047001.6,N
1667612995.8,286047003.7,N
1667613015.6,286047004.2,N
1667613035.5,286047004.2,N
1667613055.3,286047003.7,N
1667613075.1,286047004.2,N
1667613095.9,286047001.5,N
1667613115.7,286047002.2,N
1667613135.5,286047002.0,N
1667613155.4,286047000.2,N
1667613175.2,286047000.4,N
1667613195.1,286047001.1,N
1667613196.0,286047001.1,N
1667613215.8,286047000.8,N
1667613235.6,286047001.1,N
1667613255.5,286047001.0,N
1667613275.3,286047000.9,N
1667613295.1,286047000.7,N
1667613315.9,286047000.5,N
1667613335.7,286046998.1,N
1667613355.6,286047000.9,N
1667613375.4,286046998.5,N
1667613395.2,286046999.1,N
1667613415.1,286046998.8,N
1667613416.0,286046998.8,N
1667613435.8,286046999.3,N
1667613455.6,286046998.4,N
1667613475.5,286046998.9,N
1667613495.3,286046999.0,N
1667613515.2,286046999.4,N
1667613535.9,286046999.1,N
1667613555.7,286046996.5,N
1667613575.6,286047011.9,Y
1667613595.4,286046997.2,P
